Time,TemperatureF,DewpointF,PressureIn,WindDirection,WindDirectionDegrees,WindSpeedMPH,WindSpeedGustMPH,Humidity,HourlyPrecipIn,Conditions,Clouds,dailyrainin,SolarRadiationWatts/m^2,SoftwareType,DateUTC
2013-01-24 00:00:00,21.6,16.0,-100.00,SSW,192,1.8,4.5,78,0.00,,,-99.99,1.0,HOBO +U30 +Weather +,2013-01-24 07:00:00,
2013-01-24 00:05:00,21.7,15.9,-100.00,South,188,0.0,1.8,78,0.00,,,-99.99,1.0,HOBO +U30 +Weather +,2013-01-24 07:05:00,
2013-01-24 00:10:00,21.6,15.9,-100.00,South,185,2.9,4.0,78,0.00,,,-99.99,1.0,HOBO +U30 +Weather +,2013-01-24 07:10:00,
2013-01-24 00:15:00,21.3,15.8,-100.00,South,170,2.9,4.5,79,0.00,,,-99.99,1.0,HOBO +U30 +Weather +,2013-01-24 07:15:00,
2013-01-24 00:20:00,21.2,15.9,-100.00,South,181,2.2,4.0,79,0.00,,,-99.99,1.0,HOBO +U30 +Weather +,2013-01-24 07:20:00,
2013-01-24 00:25:00,21.7,16.4,-100.00,South,173,1.1,3.4,79,0.00,,,-99.99,1.0,HOBO +U30 +Weather +,2013-01-24 07:25:00,
2013-01-24 00:30:00,21.7,16.2,-100.00,South,188,2.9,4.0,79,0.00,,,-99.99,1.0,HOBO +U30 +Weather +,2013-01-24 07:30:00,
2013-01-24 00:35:00,21.9,16.2,-100.00,South,190,3.4,5.6,78,0.00,,,-99.99,1.0,HOBO +U30 +Weather +,2013-01-24 07:35:00,
2013-01-24 00:40:00,22.1,16.4,-100.00,SSW,204,2.2,6.3,78,0.00,,,-99.99,1.0,HOBO +U30 +Weather +,2013-01-24 07:40:00,
2013-01-24 00:45:00,22.1,16.3,-100.00,SSW,209,2.9,6.7,78,0.00,,,-99.99,1.0,HOBO +U30 +Weather +,2013-01-24 07:45:00,
2013-01-24 00:50:00,22.1,16.5,-100.00,South,171,4.0,6.3,78,0.00,,,-99.99,1.0,HOBO +U30 +Weather +,2013-01-24 07:50:00,
2013-01-24 00:55:00,22.4,16.7,-100.00,SSW,195,4.0,6.3,78,0.00,,,-99.99,1.0,HOBO +U30 +Weather +,2013-01-24 07:55:00,
2013-01-24 01:00:00,22.5,16.4,-100.00,SW,219,4.0,6.7,77,0.00,,,-99.99,1.0,HOBO +U30 +Weather +,2013-01-24 08:00:00,
2013-01-24 01:05:00,22.6,16.4,-100.00,SW,219,3.4,5.6,76,0.00,,,-99.99,1.0,HOBO +U30 +Weather +,2013-01-24 08:05:00,
2013-01-24 01:10:00,22.7,16.4,-100.00,SW,230,3.4,6.3,76,0.00,,,-99.99,1.0,HOBO +U30 +Weather +,2013-01-24 08:10:00,
2013-01-24 01:15:00,22.6,16.4,-100.00,SW,216,2.9,6.3,76,0.00,,,-99.99,1.0,HOBO +U30 +Weather +,2013-01-24 08:15:00,
2013-01-24 01:20:00,22.7,16.4,-100.00,SSW,198,3.4,5.6,76,0.00,,,-99.99,1.0,HOBO +U30 +Weather +,2013-01-24 08:20:00,
2013-01-24 01:25:00,22.7,16.4,-100.00,SSW,199,2.2,5.1,76,0.00,,,-99.99,1.0,HOBO +U30 +Weather +,2013-01-24 08:25:00,
2013-01-24 01:30:00,22.6,16.4,-100.00,SSW,192,4.0,6.7,76,0.00,,,-99.99,1.0,HOBO +U30 +Weather +,2013-01-24 08:30:00,
2013-01-24 01:35:00,22.6,16.6,-100.00,SSW,204,2.9,6.7,77,0.00,,,-99.99,1.0,HOBO +U30 +Weather +,2013-01-24 08:35:00,
2013-01-24 01:40:00,22.5,16.3,-100.00,SSW,205,3.4,5.6,76,0.00,,,-99.99,1.0,HOBO +U30 +Weather +,2013-01-24 08:40:00,
2013-01-24 01:45:00,22.4,16.2,-100.00,SSW,197,4.5,5.6,76,0.00,,,-99.99,1.0,HOBO +U30 +Weather +,2013-01-24 08:45:00,
2013-01-24 01:50:00,22.4,16.2,-100.00,SSW,197,4.5,6.3,76,0.00,,,-99.99,1.0,HOBO +U30 +Weather +,2013-01-24 08:50:00,
2013-01-24 01:55:00,22.3,16.2,-100.00,South,190,5.6,8.5,77,0.00,,,-99.99,1.0,HOBO +U30 +Weather +,2013-01-24 08:55:00,
2013-01-24 02:00:00,22.4,16.2,-100.00,South,188,7.8,9.6,76,0.00,,,-99.99,1.0,HOBO +U30 +Weather +,2013-01-24 09:00:00,
2013-01-24 02:05:00,22.4,16.3,-100.00,South,184,6.7,8.9,77,0.00,,,-99.99,1.0,HOBO +U30 +Weather +,2013-01-24 09:05:00,
2013-01-24 02:10:00,22.4,16.3,-100.00,South,185,7.4,9.6,77,0.00,,,-99.99,1.0,HOBO +U30 +Weather +,2013-01-24 09:10:00,
2013-01-24 02:15:00,22.6,16.4,-100.00,South,185,8.5,10.1,76,0.00,,,-99.99,1.0,HOBO +U30 +Weather +,2013-01-24 09:15:00,
2013-01-24 02:20:00,22.7,16.4,-100.00,South,184,7.8,10.1,76,0.00,,,-99.99,1.0,HOBO +U30 +Weather +,2013-01-24 09:20:00,
2013-01-24 02:25:00,22.8,16.5,-100.00,SSW,192,6.3,8.5,76,0.00,,,-99.99,1.0,HOBO +U30 +Weather +,2013-01-24 09:25:00,
2013-01-24 02:30:00,23.3,16.6,-100.00,SSW,199,3.4,5.6,75,0.00,,,-99.99,1.0,HOBO +U30 +Weather +,2013-01-24 09:30:00,
2013-01-24 02:35:00,23.3,16.7,-100.00,SSW,211,2.9,5.1,75,0.00,,,-99.99,1.0,HOBO +U30 +Weather +,2013-01-24 09:35:00,
2013-01-24 02:40:00,23.3,16.7,-100.00,SSW,213,1.1,4.0,75,0.00,,,-99.99,1.0,HOBO +U30 +Weather +,2013-01-24 09:40:00,
2013-01-24 02:45:00,23.3,16.6,-100.00,SSW,204,1.1,4.0,75,0.00,,,-99.99,1.0,HOBO +U30 +Weather +,2013-01-24 09:45:00,
2013-01-24 02:50:00,23.8,17.1,-100.00,SSW,211,0.0,2.2,75,0.00,,,-99.99,1.0,HOBO +U30 +Weather +,2013-01-24 09:50:00,
2013-01-24 03:00:00,23.7,16.8,-100.00,SSW,201,0.0,1.8,74,0.00,,,-99.99,1.0,HOBO +U30 +Weather +,2013-01-24 10:00:00,
2013-01-24 03:05:00,24.2,17.2,-100.00,South,180,0.0,0.0,74,0.00,,,-99.99,1.0,HOBO +U30 +Weather +,2013-01-24 10:05:00,
2013-01-24 03:10:00,23.9,16.6,-100.00,South,171,0.0,0.7,73,0.00,,,-99.99,1.0,HOBO +U30 +Weather +,2013-01-24 10:10:00,
2013-01-24 03:15:00,22.9,16.4,-100.00,NE,56,1.1,4.0,76,0.00,,,-99.99,1.0,HOBO +U30 +Weather +,2013-01-24 10:15:00,
2013-01-24 03:20:00,22.6,16.5,-100.00,NNE,25,2.9,5.1,76,0.00,,,-99.99,1.0,HOBO +U30 +Weather +,2013-01-24 10:20:00,
2013-01-24 03:25:00,22.7,16.7,-100.00,NNE,24,4.5,8.5,77,0.00,,,-99.99,1.0,HOBO +U30 +Weather +,2013-01-24 10:25:00,
2013-01-24 03:30:00,21.9,16.7,-100.00,NE,34,5.6,8.5,79,0.00,,,-99.99,1.0,HOBO +U30 +Weather +,2013-01-24 10:30:00,
2013-01-24 03:35:00,21.3,16.4,-100.00,NE,34,6.3,8.9,81,0.00,,,-99.99,1.0,HOBO +U30 +Weather +,2013-01-24 10:35:00,
2013-01-24 03:40:00,21.1,16.3,-100.00,NNE,32,4.5,7.4,81,0.00,,,-99.99,1.0,HOBO +U30 +Weather +,2013-01-24 10:40:00,
2013-01-24 03:50:00,20.7,16.0,-100.00,NE,34,5.1,9.6,81,0.00,,,-99.99,1.0,HOBO +U30 +Weather +,2013-01-24 10:50:00,
2013-01-24 03:55:00,20.8,16.1,-100.00,NNE,31,3.4,6.3,81,0.00,,,-99.99,1.0,HOBO +U30 +Weather +,2013-01-24 10:55:00,
2013-01-24 04:00:00,20.6,16.0,-100.00,NE,35,5.6,9.6,82,0.00,,,-99.99,1.0,HOBO +U30 +Weather +,2013-01-24 11:00:00,
2013-01-24 04:05:00,20.6,16.1,-100.00,NE,37,7.8,10.7,82,0.00,,,-99.99,1.0,HOBO +U30 +Weather +,2013-01-24 11:05:00,
2013-01-24 04:10:00,20.2,15.7,-100.00,NE,46,5.6,8.5,82,0.00,,,-99.99,1.0,HOBO +U30 +Weather +,2013-01-24 11:10:00,
2013-01-24 04:15:00,20.1,15.7,-100.00,NE,44,2.9,4.5,82,0.00,,,-99.99,1.0,HOBO +U30 +Weather +,2013-01-24 11:15:00,
2013-01-24 04:25:00,20.5,16.2,-100.00,NNE,13,7.4,11.9,83,0.00,,,-99.99,1.0,HOBO +U30 +Weather +,2013-01-24 11:25:00,
2013-01-24 04:30:00,21.7,16.7,-100.00,North,3,4.5,7.8,80,0.00,,,-99.99,1.0,HOBO +U30 +Weather +,2013-01-24 11:30:00,
2013-01-24 04:45:00,22.1,17.0,-100.00,ENE,60,4.0,6.3,80,0.00,,,-99.99,1.0,HOBO +U30 +Weather +,2013-01-24 11:45:00,
2013-01-24 04:55:00,25.9,18.0,-100.00,SSW,192,2.2,5.6,71,0.00,,,-99.99,1.0,HOBO +U30 +Weather +,2013-01-24 11:55:00,
2013-01-24 05:00:00,23.5,16.4,-100.00,WSW,243,0.7,2.9,74,0.00,,,-99.99,1.0,HOBO +U30 +Weather +,2013-01-24 12:00:00,
2013-01-24 05:05:00,22.1,15.7,-100.00,WSW,248,1.1,3.4,75,0.00,,,-99.99,1.0,HOBO +U30 +Weather +,2013-01-24 12:05:00,
2013-01-24 05:10:00,23.0,16.8,-100.00,WNW,282,2.2,4.0,76,0.00,,,-99.99,1.0,HOBO +U30 +Weather +,2013-01-24 12:10:00,
2013-01-24 05:15:00,24.5,17.6,-100.00,West,264,1.8,5.1,74,0.00,,,-99.99,1.0,HOBO +U30 +Weather +,2013-01-24 12:15:00,
2013-01-24 05:20:00,26.9,18.1,-100.00,South,191,4.0,6.3,68,0.00,,,-99.99,1.0,HOBO +U30 +Weather +,2013-01-24 12:20:00,
2013-01-24 05:25:00,26.2,17.8,-100.00,South,184,6.3,8.5,70,0.00,,,-99.99,1.0,HOBO +U30 +Weather +,2013-01-24 12:25:00,
2013-01-24 05:30:00,25.2,17.1,-100.00,South,184,4.0,8.5,71,0.00,,,-99.99,1.0,HOBO +U30 +Weather +,2013-01-24 12:30:00,
2013-01-24 05:35:00,25.1,17.6,-100.00,South,185,1.8,5.6,72,0.00,,,-99.99,1.0,HOBO +U30 +Weather +,2013-01-24 12:35:00,
2013-01-24 05:40:00,25.9,18.0,-100.00,SW,215,1.8,4.0,71,0.00,,,-99.99,1.0,HOBO +U30 +Weather +,2013-01-24 12:40:00,
2013-01-24 05:45:00,23.8,16.7,-100.00,West,277,3.4,6.3,74,0.00,,,-99.99,1.0,HOBO +U30 +Weather +,2013-01-24 12:45:00,
2013-01-24 05:50:00,24.7,17.3,-100.00,West,265,2.2,5.1,73,0.00,,,-99.99,1.0,HOBO +U30 +Weather +,2013-01-24 12:50:00,
2013-01-24 05:55:00,25.6,17.8,-100.00,WSW,248,2.9,4.0,71,0.00,,,-99.99,1.0,HOBO +U30 +Weather +,2013-01-24 12:55:00,
2013-01-24 06:00:00,27.1,18.1,-100.00,SW,229,4.0,6.3,68,0.00,,,-99.99,1.0,HOBO +U30 +Weather +,2013-01-24 13:00:00,
2013-01-24 06:05:00,26.5,17.2,-100.00,SW,236,2.2,5.1,67,0.00,,,-99.99,1.0,HOBO +U30 +Weather +,2013-01-24 13:05:00,
2013-01-24 06:10:00,25.6,17.5,-100.00,NW,305,2.9,6.3,71,0.00,,,-99.99,1.0,HOBO +U30 +Weather +,2013-01-24 13:10:00,
2013-01-24 06:15:00,27.1,17.7,-100.00,WNW,282,2.2,4.5,67,0.00,,,-99.99,1.0,HOBO +U30 +Weather +,2013-01-24 13:15:00,
2013-01-24 06:20:00,27.7,17.9,-100.00,WSW,254,1.8,3.4,66,0.00,,,-99.99,1.0,HOBO +U30 +Weather +,2013-01-24 13:20:00,
2013-01-24 06:25:00,27.6,18.0,-100.00,SW,232,2.2,4.5,66,0.00,,,-99.99,1.0,HOBO +U30 +Weather +,2013-01-24 13:25:00,
2013-01-24 06:30:00,28.2,18.0,-100.00,SW,223,4.0,5.1,65,0.00,,,-99.99,1.0,HOBO +U30 +Weather +,2013-01-24 13:30:00,
2013-01-24 06:35:00,29.5,18.1,-100.00,SSW,212,3.4,5.6,62,0.00,,,-99.99,1.0,HOBO +U30 +Weather +,2013-01-24 13:35:00,
2013-01-24 06:40:00,29.1,18.2,-100.00,SW,232,1.1,4.0,63,0.00,,,-99.99,1.0,HOBO +U30 +Weather +,2013-01-24 13:40:00,
2013-01-24 06:45:00,27.5,17.0,-100.00,SW,227,0.0,2.2,64,0.00,,,-99.99,1.0,HOBO +U30 +Weather +,2013-01-24 13:45:00,
2013-01-24 06:50:00,26.4,17.0,-100.00,SSW,206,0.0,0.0,67,0.00,,,-99.99,1.0,HOBO +U30 +Weather +,2013-01-24 13:50:00,
2013-01-24 06:55:00,25.2,16.8,-100.00,SSW,206,0.0,0.0,70,0.00,,,-99.99,1.0,HOBO +U30 +Weather +,2013-01-24 13:55:00,
2013-01-24 07:00:00,25.8,17.7,-100.00,SSW,206,0.0,0.7,70,0.00,,,-99.99,1.0,HOBO +U30 +Weather +,2013-01-24 14:00:00,
2013-01-24 07:05:00,26.2,17.7,-100.00,SSW,206,0.0,0.0,70,0.00,,,-99.99,1.0,HOBO +U30 +Weather +,2013-01-24 14:05:00,
2013-01-24 07:10:00,26.2,17.5,-100.00,SSW,197,0.7,2.2,69,0.00,,,-99.99,1.0,HOBO +U30 +Weather +,2013-01-24 14:10:00,
2013-01-24 07:15:00,25.7,17.8,-100.00,SSW,211,0.0,0.7,71,0.00,,,-99.99,1.0,HOBO +U30 +Weather +,2013-01-24 14:15:00,
2013-01-24 07:20:00,27.4,18.1,-100.00,SW,234,0.7,1.8,67,0.00,,,-99.99,1.0,HOBO +U30 +Weather +,2013-01-24 14:20:00,
2013-01-24 07:25:00,28.7,18.5,-100.00,WSW,248,2.2,4.5,65,0.00,,,-99.99,1.0,HOBO +U30 +Weather +,2013-01-24 14:25:00,
2013-01-24 07:30:00,29.7,18.3,-100.00,SW,229,2.9,4.0,62,0.00,,,-99.99,1.0,HOBO +U30 +Weather +,2013-01-24 14:30:00,
2013-01-24 07:35:00,30.4,18.2,-100.00,SW,216,2.9,4.5,60,0.00,,,-99.99,1.0,HOBO +U30 +Weather +,2013-01-24 14:35:00,
2013-01-24 07:40:00,30.0,17.8,-100.00,SSW,197,2.2,3.4,60,0.00,,,-99.99,1.0,HOBO +U30 +Weather +,2013-01-24 14:40:00,
2013-01-24 07:45:00,29.6,18.1,-100.00,SW,218,1.1,2.2,62,0.00,,,-99.99,4.0,HOBO +U30 +Weather +,2013-01-24 14:45:00,
2013-01-24 07:50:00,29.0,18.2,-100.00,SW,219,0.7,4.0,63,0.00,,,-99.99,14.0,HOBO +U30 +Weather +,2013-01-24 14:50:00,
2013-01-24 07:55:00,28.5,17.9,-100.00,SW,220,0.0,2.2,64,0.00,,,-99.99,26.0,HOBO +U30 +Weather +,2013-01-24 14:55:00,
2013-01-24 08:00:00,30.3,18.4,-100.00,West,268,1.1,3.4,60,0.00,,,-99.99,34.0,HOBO +U30 +Weather +,2013-01-24 15:00:00,
2013-01-24 08:05:00,30.3,18.1,-100.00,WSW,256,0.0,2.2,60,0.00,,,-99.99,43.0,HOBO +U30 +Weather +,2013-01-24 15:05:00,
2013-01-24 08:10:00,31.1,18.8,-100.00,SSW,199,0.7,2.2,59,0.00,,,-99.99,69.0,HOBO +U30 +Weather +,2013-01-24 15:10:00,
2013-01-24 08:15:00,32.6,19.0,-100.00,SSW,198,2.9,5.1,56,0.00,,,-99.99,99.0,HOBO +U30 +Weather +,2013-01-24 15:15:00,
2013-01-24 08:20:00,33.3,18.6,-100.00,SSW,195,4.0,5.1,54,0.00,,,-99.99,117.0,HOBO +U30 +Weather +,2013-01-24 15:20:00,
2013-01-24 08:25:00,34.2,18.9,-100.00,SSW,212,3.4,4.5,53,0.00,,,-99.99,118.0,HOBO +U30 +Weather +,2013-01-24 15:25:00,
2013-01-24 08:30:00,32.6,18.9,-100.00,WSW,251,3.4,6.3,56,0.00,,,-99.99,81.0,HOBO +U30 +Weather +,2013-01-24 15:30:00,
2013-01-24 08:35:00,32.2,19.1,-100.00,West,277,2.2,5.1,57,0.00,,,-99.99,76.0,HOBO +U30 +Weather +,2013-01-24 15:35:00,
2013-01-24 08:40:00,34.2,19.3,-100.00,WSW,246,2.2,5.1,54,0.00,,,-99.99,104.0,HOBO +U30 +Weather +,2013-01-24 15:40:00,
2013-01-24 08:45:00,34.5,19.1,-100.00,WSW,244,2.2,4.0,52,0.00,,,-99.99,61.0,HOBO +U30 +Weather +,2013-01-24 15:45:00,
2013-01-24 08:50:00,35.0,19.0,-100.00,West,275,2.2,5.1,51,0.00,,,-99.99,59.0,HOBO +U30 +Weather +,2013-01-24 15:50:00,
2013-01-24 08:55:00,36.3,18.8,-100.00,WSW,257,2.9,4.5,48,0.00,,,-99.99,92.0,HOBO +U30 +Weather +,2013-01-24 15:55:00,
2013-01-24 09:00:00,37.2,19.3,-100.00,WSW,247,3.4,5.1,47,0.00,,,-99.99,109.0,HOBO +U30 +Weather +,2013-01-24 16:00:00,
2013-01-24 09:05:00,36.8,19.4,-100.00,SW,236,1.8,4.0,49,0.00,,,-99.99,114.0,HOBO +U30 +Weather +,2013-01-24 16:05:00,
2013-01-24 09:10:00,36.7,20.2,-100.00,SW,236,0.0,1.8,50,0.00,,,-99.99,109.0,HOBO +U30 +Weather +,2013-01-24 16:10:00,
2013-01-24 09:15:00,37.9,20.2,-100.00,SW,236,0.0,1.8,48,0.00,,,-99.99,121.0,HOBO +U30 +Weather +,2013-01-24 16:15:00,
2013-01-24 09:20:00,38.8,21.1,-100.00,SW,236,0.0,0.7,48,0.00,,,-99.99,128.0,HOBO +U30 +Weather +,2013-01-24 16:20:00,
2013-01-24 09:25:00,37.9,20.6,-100.00,SW,236,0.0,0.7,49,0.00,,,-99.99,128.0,HOBO +U30 +Weather +,2013-01-24 16:25:00,
2013-01-24 09:30:00,38.6,19.8,-100.00,South,174,2.2,4.0,46,0.00,,,-99.99,162.0,HOBO +U30 +Weather +,2013-01-24 16:30:00,
2013-01-24 09:35:00,38.0,20.0,-100.00,South,191,2.9,6.7,47,0.00,,,-99.99,191.0,HOBO +U30 +Weather +,2013-01-24 16:35:00,
2013-01-24 09:40:00,37.8,20.1,-100.00,South,188,7.4,9.6,48,0.00,,,-99.99,172.0,HOBO +U30 +Weather +,2013-01-24 16:40:00,
2013-01-24 09:45:00,37.7,20.9,-100.00,SSW,213,3.4,6.7,50,0.00,,,-99.99,187.0,HOBO +U30 +Weather +,2013-01-24 16:45:00,
2013-01-24 09:50:00,39.4,21.5,-100.00,North,0,3.4,5.6,48,0.00,,,-99.99,188.0,HOBO +U30 +Weather +,2013-01-24 16:50:00,
2013-01-24 09:55:00,38.4,21.0,-100.00,NNE,20,4.0,7.8,49,0.00,,,-99.99,184.0,HOBO +U30 +Weather +,2013-01-24 16:55:00,
2013-01-24 10:00:00,41.6,22.5,-100.00,ENE,58,2.9,5.6,46,0.00,,,-99.99,202.0,HOBO +U30 +Weather +,2013-01-24 17:00:00,
2013-01-24 10:05:00,43.4,23.0,-100.00,East,83,0.7,4.0,44,0.00,,,-99.99,231.0,HOBO +U30 +Weather +,2013-01-24 17:05:00,
2013-01-24 10:10:00,42.5,22.9,-100.00,SSE,167,2.2,6.3,45,0.00,,,-99.99,239.0,HOBO +U30 +Weather +,2013-01-24 17:10:00,
2013-01-24 10:15:00,43.2,23.5,-100.00,South,178,4.5,6.3,45,0.00,,,-99.99,244.0,HOBO +U30 +Weather +,2013-01-24 17:15:00,
2013-01-24 10:20:00,44.0,24.1,-100.00,South,171,3.4,5.1,45,0.00,,,-99.99,284.0,HOBO +U30 +Weather +,2013-01-24 17:20:00,
2013-01-24 10:25:00,45.5,24.9,-100.00,SSW,201,0.7,3.4,44,0.00,,,-99.99,237.0,HOBO +U30 +Weather +,2013-01-24 17:25:00,
2013-01-24 10:30:00,45.6,24.7,-100.00,SSW,201,0.0,0.7,43,0.00,,,-99.99,238.0,HOBO +U30 +Weather +,2013-01-24 17:30:00,
2013-01-24 10:35:00,45.0,24.2,-100.00,SSW,201,0.0,0.7,43,0.00,,,-99.99,196.0,HOBO +U30 +Weather +,2013-01-24 17:35:00,
2013-01-24 10:40:00,45.6,24.5,-100.00,SSW,201,0.0,0.0,43,0.00,,,-99.99,194.0,HOBO +U30 +Weather +,2013-01-24 17:40:00,
2013-01-24 10:45:00,45.7,24.2,-100.00,SSW,204,0.0,1.1,42,0.00,,,-99.99,203.0,HOBO +U30 +Weather +,2013-01-24 17:45:00,
2013-01-24 10:50:00,45.5,24.3,-100.00,SSW,205,0.0,1.8,42,0.00,,,-99.99,191.0,HOBO +U30 +Weather +,2013-01-24 17:50:00,
2013-01-24 10:55:00,47.0,25.6,-100.00,SSW,198,0.0,1.8,42,0.00,,,-99.99,184.0,HOBO +U30 +Weather +,2013-01-24 17:55:00,
2013-01-24 11:00:00,47.2,25.4,-100.00,SSW,198,0.0,0.0,42,0.00,,,-99.99,211.0,HOBO +U30 +Weather +,2013-01-24 18:00:00,
2013-01-24 11:05:00,46.9,25.3,-100.00,SSW,202,0.0,0.7,42,0.00,,,-99.99,212.0,HOBO +U30 +Weather +,2013-01-24 18:05:00,
2013-01-24 11:10:00,47.5,25.8,-100.00,SSW,209,0.0,0.0,42,0.00,,,-99.99,228.0,HOBO +U30 +Weather +,2013-01-24 18:10:00,
2013-01-24 11:15:00,47.0,25.2,-100.00,NNE,14,0.7,2.9,42,0.00,,,-99.99,203.0,HOBO +U30 +Weather +,2013-01-24 18:15:00,
2013-01-24 11:20:00,47.0,25.2,-100.00,North,8,1.1,4.0,42,0.00,,,-99.99,192.0,HOBO +U30 +Weather +,2013-01-24 18:20:00,
2013-01-24 11:25:00,47.3,25.4,-100.00,North,8,0.0,2.9,42,0.00,,,-99.99,162.0,HOBO +U30 +Weather +,2013-01-24 18:25:00,
2013-01-24 11:30:00,48.3,25.8,-100.00,North,8,0.0,0.0,41,0.00,,,-99.99,139.0,HOBO +U30 +Weather +,2013-01-24 18:30:00,
2013-01-24 11:35:00,48.6,25.2,-100.00,North,8,0.0,1.8,39,0.00,,,-99.99,148.0,HOBO +U30 +Weather +,2013-01-24 18:35:00,
2013-01-24 11:40:00,48.3,24.9,-100.00,WNW,299,0.0,1.8,39,0.00,,,-99.99,153.0,HOBO +U30 +Weather +,2013-01-24 18:40:00,
2013-01-24 11:45:00,48.3,25.0,-100.00,West,267,0.7,2.2,39,0.00,,,-99.99,147.0,HOBO +U30 +Weather +,2013-01-24 18:45:00,
2013-01-24 11:50:00,48.3,25.0,-100.00,West,267,0.0,2.2,39,0.00,,,-99.99,156.0,HOBO +U30 +Weather +,2013-01-24 18:50:00,
2013-01-24 11:55:00,48.5,25.0,-100.00,West,270,0.0,2.2,39,0.00,,,-99.99,177.0,HOBO +U30 +Weather +,2013-01-24 18:55:00,
2013-01-24 12:00:00,48.3,24.7,-100.00,North,350,2.2,4.0,39,0.00,,,-99.99,189.0,HOBO +U30 +Weather +,2013-01-24 19:00:00,
2013-01-24 12:05:00,49.2,25.3,-100.00,WNW,291,1.1,5.1,39,0.00,,,-99.99,188.0,HOBO +U30 +Weather +,2013-01-24 19:05:00,
2013-01-24 12:10:00,51.6,26.2,-100.00,West,277,4.0,11.9,36,0.00,,,-99.99,189.0,HOBO +U30 +Weather +,2013-01-24 19:10:00,
2013-01-24 12:15:00,54.3,26.4,-100.00,West,281,13.4,35.6,33,0.00,,,-99.99,196.0,HOBO +U30 +Weather +,2013-01-24 19:15:00,
2013-01-24 12:20:00,54.4,26.5,-100.00,WNW,284,15.9,25.9,33,0.00,,,-99.99,194.0,HOBO +U30 +Weather +,2013-01-24 19:20:00,
2013-01-24 12:25:00,54.2,26.3,-100.00,West,278,13.4,26.4,33,0.00,,,-99.99,188.0,HOBO +U30 +Weather +,2013-01-24 19:25:00,
2013-01-24 12:30:00,54.4,26.3,-100.00,WNW,286,15.9,24.8,33,0.00,,,-99.99,164.0,HOBO +U30 +Weather +,2013-01-24 19:30:00,
2013-01-24 12:35:00,54.2,26.4,-100.00,WNW,286,13.4,27.1,33,0.00,,,-99.99,143.0,HOBO +U30 +Weather +,2013-01-24 19:35:00,
2013-01-24 12:40:00,54.3,26.1,-100.00,WNW,288,13.4,24.8,33,0.00,,,-99.99,169.0,HOBO +U30 +Weather +,2013-01-24 19:40:00,
2013-01-24 12:45:00,54.6,26.0,-100.00,WNW,286,15.9,25.9,32,0.00,,,-99.99,206.0,HOBO +U30 +Weather +,2013-01-24 19:45:00,
2013-01-24 12:50:00,54.9,26.4,-100.00,WNW,296,14.5,24.8,33,0.00,,,-99.99,371.0,HOBO +U30 +Weather +,2013-01-24 19:50:00,
2013-01-24 12:55:00,54.0,26.8,-100.00,NW,309,15.2,26.4,34,0.00,,,-99.99,228.0,HOBO +U30 +Weather +,2013-01-24 19:55:00,
2013-01-24 13:00:00,53.0,27.2,-100.00,NNW,330,14.5,24.2,36,0.00,,,-99.99,363.0,HOBO +U30 +Weather +,2013-01-24 20:00:00,
2013-01-24 13:05:00,52.7,27.2,-100.00,NNW,336,13.4,23.7,37,0.00,,,-99.99,442.0,HOBO +U30 +Weather +,2013-01-24 20:05:00,
2013-01-24 13:10:00,52.9,27.5,-100.00,NW,323,14.5,23.7,37,0.00,,,-99.99,318.0,HOBO +U30 +Weather +,2013-01-24 20:10:00,
2013-01-24 13:15:00,53.4,27.5,-100.00,NW,321,13.0,24.2,36,0.00,,,-99.99,293.0,HOBO +U30 +Weather +,2013-01-24 20:15:00,
2013-01-24 13:20:00,53.7,27.6,-100.00,NW,319,15.2,28.6,36,0.00,,,-99.99,197.0,HOBO +U30 +Weather +,2013-01-24 20:20:00,
2013-01-24 13:25:00,54.2,27.7,-100.00,NW,309,13.4,21.9,35,0.00,,,-99.99,511.0,HOBO +U30 +Weather +,2013-01-24 20:25:00,
2013-01-24 13:30:00,53.3,27.0,-100.00,NW,313,13.0,23.7,35,0.00,,,-99.99,112.0,HOBO +U30 +Weather +,2013-01-24 20:30:00,
2013-01-24 13:35:00,52.6,26.4,-100.00,NW,310,13.4,23.0,36,0.00,,,-99.99,337.0,HOBO +U30 +Weather +,2013-01-24 20:35:00,
2013-01-24 13:40:00,53.3,26.5,-100.00,NW,309,14.5,24.2,35,0.00,,,-99.99,411.0,HOBO +U30 +Weather +,2013-01-24 20:40:00,
2013-01-24 13:45:00,53.4,26.8,-100.00,NW,312,13.4,28.2,35,0.00,,,-99.99,161.0,HOBO +U30 +Weather +,2013-01-24 20:45:00,
2013-01-24 13:50:00,53.8,27.0,-100.00,NW,313,12.3,24.8,35,0.00,,,-99.99,388.0,HOBO +U30 +Weather +,2013-01-24 20:50:00,
2013-01-24 14:00:00,53.9,26.7,-100.00,NW,317,14.5,21.9,34,0.00,,,-99.99,173.0,HOBO +U30 +Weather +,2013-01-24 21:00:00,
2013-01-24 14:05:00,54.0,26.6,-100.00,NW,314,14.1,22.6,34,0.00,,,-99.99,378.0,HOBO +U30 +Weather +,2013-01-24 21:05:00,
2013-01-24 14:10:00,54.1,26.5,-100.00,WNW,299,13.4,23.7,34,0.00,,,-99.99,179.0,HOBO +U30 +Weather +,2013-01-24 21:10:00,
2013-01-24 14:15:00,54.0,26.7,-100.00,NW,310,11.9,19.7,34,0.00,,,-99.99,213.0,HOBO +U30 +Weather +,2013-01-24 21:15:00,
2013-01-24 14:20:00,54.0,26.3,-100.00,WNW,298,13.4,26.4,34,0.00,,,-99.99,86.0,HOBO +U30 +Weather +,2013-01-24 21:20:00,
2013-01-24 14:25:00,54.2,26.7,-100.00,WNW,295,13.0,23.7,34,0.00,,,-99.99,324.0,HOBO +U30 +Weather +,2013-01-24 21:25:00,
2013-01-24 14:40:00,54.4,26.2,-100.00,WNW,298,11.9,21.9,33,0.00,,,-99.99,306.0,HOBO +U30 +Weather +,2013-01-24 21:40:00,
2013-01-24 14:45:00,54.3,26.2,-100.00,WNW,302,12.3,21.9,33,0.00,,,-99.99,301.0,HOBO +U30 +Weather +,2013-01-24 21:45:00,
2013-01-24 14:50:00,54.4,26.2,-100.00,WNW,300,10.7,19.2,33,0.00,,,-99.99,289.0,HOBO +U30 +Weather +,2013-01-24 21:50:00,
2013-01-24 14:55:00,54.0,25.9,-100.00,NW,314,10.7,20.8,33,0.00,,,-99.99,283.0,HOBO +U30 +Weather +,2013-01-24 21:55:00,
2013-01-24 15:00:00,54.1,26.4,-100.00,NW,324,11.9,19.7,34,0.00,,,-99.99,274.0,HOBO +U30 +Weather +,2013-01-24 22:00:00,
2013-01-24 15:05:00,54.2,25.8,-100.00,NW,309,12.3,19.2,33,0.00,,,-99.99,256.0,HOBO +U30 +Weather +,2013-01-24 22:05:00,
2013-01-24 15:10:00,53.9,25.8,-100.00,NW,320,10.7,19.2,33,0.00,,,-99.99,263.0,HOBO +U30 +Weather +,2013-01-24 22:10:00,
2013-01-24 15:15:00,54.0,25.7,-100.00,NW,316,10.1,17.0,33,0.00,,,-99.99,242.0,HOBO +U30 +Weather +,2013-01-24 22:15:00,
2013-01-24 15:20:00,53.7,25.6,-100.00,NNW,327,11.2,19.2,33,0.00,,,-99.99,228.0,HOBO +U30 +Weather +,2013-01-24 22:20:00,
2013-01-24 15:25:00,53.3,25.8,-100.00,NNW,340,14.1,22.6,34,0.00,,,-99.99,219.0,HOBO +U30 +Weather +,2013-01-24 22:25:00,
2013-01-24 15:30:00,53.1,25.3,-100.00,NW,323,10.1,20.4,33,0.00,,,-99.99,208.0,HOBO +U30 +Weather +,2013-01-24 22:30:00,
2013-01-24 15:35:00,53.1,25.4,-100.00,NW,324,9.6,19.2,33,0.00,,,-99.99,198.0,HOBO +U30 +Weather +,2013-01-24 22:35:00,
2013-01-24 15:40:00,52.8,25.3,-100.00,NW,316,8.9,16.3,34,0.00,,,-99.99,188.0,HOBO +U30 +Weather +,2013-01-24 22:40:00,
2013-01-24 15:45:00,52.8,25.3,-100.00,NW,309,8.9,20.4,34,0.00,,,-99.99,178.0,HOBO +U30 +Weather +,2013-01-24 22:45:00,
2013-01-24 15:50:00,52.8,25.5,-100.00,NW,309,8.9,17.4,34,0.00,,,-99.99,172.0,HOBO +U30 +Weather +,2013-01-24 22:50:00,
2013-01-24 15:55:00,52.6,25.1,-100.00,NW,306,11.2,21.5,34,0.00,,,-99.99,164.0,HOBO +U30 +Weather +,2013-01-24 22:55:00,
2013-01-24 16:00:00,52.3,25.1,-100.00,NW,310,12.3,22.6,34,0.00,,,-99.99,144.0,HOBO +U30 +Weather +,2013-01-24 23:00:00,
2013-01-24 16:05:00,51.9,25.0,-100.00,NW,313,10.7,17.4,34,0.00,,,-99.99,121.0,HOBO +U30 +Weather +,2013-01-24 23:05:00,
2013-01-24 16:10:00,51.8,25.2,-100.00,NW,319,10.7,19.2,35,0.00,,,-99.99,114.0,HOBO +U30 +Weather +,2013-01-24 23:10:00,
2013-01-24 16:15:00,51.7,25.1,-100.00,NW,323,9.6,18.1,35,0.00,,,-99.99,104.0,HOBO +U30 +Weather +,2013-01-24 23:15:00,
2013-01-24 16:20:00,51.5,24.9,-100.00,NW,324,9.6,18.1,35,0.00,,,-99.99,97.0,HOBO +U30 +Weather +,2013-01-24 23:20:00,
2013-01-24 16:25:00,51.2,25.2,-100.00,NW,319,10.1,18.1,36,0.00,,,-99.99,82.0,HOBO +U30 +Weather +,2013-01-24 23:25:00,
2013-01-24 16:30:00,50.8,24.7,-100.00,NW,323,13.0,20.8,35,0.00,,,-99.99,38.0,HOBO +U30 +Weather +,2013-01-24 23:30:00,
2013-01-24 16:35:00,50.4,24.7,-100.00,NNW,330,13.0,20.4,36,0.00,,,-99.99,29.0,HOBO +U30 +Weather +,2013-01-24 23:35:00,
2013-01-24 16:40:00,50.2,24.6,-100.00,NW,326,13.0,21.5,36,0.00,,,-99.99,26.0,HOBO +U30 +Weather +,2013-01-24 23:40:00,
2013-01-24 16:45:00,50.0,24.7,-100.00,NW,320,13.4,23.0,36,0.00,,,-99.99,22.0,HOBO +U30 +Weather +,2013-01-24 23:45:00,
2013-01-24 16:50:00,49.8,24.3,-100.00,NNW,330,13.4,19.7,36,0.00,,,-99.99,22.0,HOBO +U30 +Weather +,2013-01-24 23:50:00,
2013-01-24 16:55:00,49.6,23.9,-100.00,NNW,333,13.4,20.8,36,0.00,,,-99.99,17.0,HOBO +U30 +Weather +,2013-01-24 23:55:00,
2013-01-24 17:00:00,49.3,23.4,-100.00,NNW,334,14.5,23.7,35,0.00,,,-99.99,11.0,HOBO +U30 +Weather +,2013-01-25 00:00:00,
2013-01-24 17:05:00,48.9,23.2,-100.00,NNW,327,15.9,23.7,36,0.00,,,-99.99,7.0,HOBO +U30 +Weather +,2013-01-25 00:05:00,
2013-01-24 17:10:00,48.5,23.1,-100.00,NNW,331,11.9,20.8,36,0.00,,,-99.99,3.0,HOBO +U30 +Weather +,2013-01-25 00:10:00,
2013-01-24 17:15:00,48.2,23.0,-100.00,NW,313,9.6,18.1,36,0.00,,,-99.99,2.0,HOBO +U30 +Weather +,2013-01-25 00:15:00,
2013-01-24 17:20:00,47.6,23.1,-100.00,WNW,285,5.1,10.1,37,0.00,,,-99.99,1.0,HOBO +U30 +Weather +,2013-01-25 00:20:00,
2013-01-24 17:25:00,47.6,23.4,-100.00,SW,223,4.5,7.4,38,0.00,,,-99.99,1.0,HOBO +U30 +Weather +,2013-01-25 00:25:00,
2013-01-24 17:30:00,47.6,23.7,-100.00,SSW,209,3.4,6.7,38,0.00,,,-99.99,1.0,HOBO +U30 +Weather +,2013-01-25 00:30:00,
2013-01-24 17:35:00,47.6,23.6,-100.00,South,188,4.0,7.4,38,0.00,,,-99.99,1.0,HOBO +U30 +Weather +,2013-01-25 00:35:00,
2013-01-24 17:40:00,47.4,23.7,-100.00,South,190,4.0,8.9,38,0.00,,,-99.99,1.0,HOBO +U30 +Weather +,2013-01-25 00:40:00,
2013-01-24 17:45:00,47.2,23.3,-100.00,WSW,257,2.9,7.4,38,0.00,,,-99.99,1.0,HOBO +U30 +Weather +,2013-01-25 00:45:00,
2013-01-24 17:50:00,46.9,22.9,-100.00,SW,234,1.1,5.1,38,0.00,,,-99.99,1.0,HOBO +U30 +Weather +,2013-01-25 00:50:00,
2013-01-24 17:55:00,46.5,22.6,-100.00,West,278,1.1,4.0,38,0.00,,,-99.99,1.0,HOBO +U30 +Weather +,2013-01-25 00:55:00,
2013-01-24 18:00:00,46.2,22.5,-100.00,SW,223,0.7,2.2,38,0.00,,,-99.99,1.0,HOBO +U30 +Weather +,2013-01-25 01:00:00,
2013-01-24 18:05:00,46.0,22.2,-100.00,SW,234,1.1,6.7,38,0.00,,,-99.99,1.0,HOBO +U30 +Weather +,2013-01-25 01:05:00,
2013-01-24 18:10:00,46.0,22.4,-100.00,WSW,253,2.2,6.3,38,0.00,,,-99.99,1.0,HOBO +U30 +Weather +,2013-01-25 01:10:00,
2013-01-24 18:15:00,45.4,22.1,-100.00,West,265,2.9,5.1,39,0.00,,,-99.99,1.0,HOBO +U30 +Weather +,2013-01-25 01:15:00,
2013-01-24 18:20:00,45.2,22.0,-100.00,West,264,2.9,5.6,39,0.00,,,-99.99,1.0,HOBO +U30 +Weather +,2013-01-25 01:20:00,
2013-01-24 18:25:00,45.2,22.3,-100.00,WSW,240,2.2,5.1,39,0.00,,,-99.99,1.0,HOBO +U30 +Weather +,2013-01-25 01:25:00,
2013-01-24 18:30:00,45.0,22.1,-100.00,SW,218,0.7,2.9,39,0.00,,,-99.99,1.0,HOBO +U30 +Weather +,2013-01-25 01:30:00,
2013-01-24 18:35:00,44.5,22.0,-100.00,South,181,1.1,4.5,40,0.00,,,-99.99,1.0,HOBO +U30 +Weather +,2013-01-25 01:35:00,
2013-01-24 18:40:00,44.5,21.8,-100.00,SW,222,0.7,2.9,40,0.00,,,-99.99,1.0,HOBO +U30 +Weather +,2013-01-25 01:40:00,
2013-01-24 18:45:00,44.0,21.9,-100.00,SW,234,0.0,0.7,41,0.00,,,-99.99,1.0,HOBO +U30 +Weather +,2013-01-25 01:45:00,
2013-01-24 18:50:00,43.9,21.7,-100.00,SW,234,0.0,2.2,40,0.00,,,-99.99,1.0,HOBO +U30 +Weather +,2013-01-25 01:50:00,
2013-01-24 18:55:00,44.1,21.6,-100.00,SW,236,1.1,5.1,40,0.00,,,-99.99,1.0,HOBO +U30 +Weather +,2013-01-25 01:55:00,
2013-01-24 19:00:00,43.7,21.7,-100.00,WSW,237,0.0,2.2,41,0.00,,,-99.99,1.0,HOBO +U30 +Weather +,2013-01-25 02:00:00,
2013-01-24 19:05:00,43.7,21.7,-100.00,West,265,0.7,2.9,41,0.00,,,-99.99,1.0,HOBO +U30 +Weather +,2013-01-25 02:05:00,
2013-01-24 19:10:00,43.0,21.5,-100.00,West,278,0.7,2.2,42,0.00,,,-99.99,1.0,HOBO +U30 +Weather +,2013-01-25 02:10:00,
2013-01-24 19:15:00,42.4,21.8,-100.00,West,278,2.2,4.0,43,0.00,,,-99.99,1.0,HOBO +U30 +Weather +,2013-01-25 02:15:00,
2013-01-24 19:20:00,42.3,21.8,-100.00,West,278,2.2,4.0,43,0.00,,,-99.99,1.0,HOBO +U30 +Weather +,2013-01-25 02:20:00,
2013-01-24 19:25:00,41.8,21.9,-100.00,West,275,1.8,2.9,44,0.00,,,-99.99,1.0,HOBO +U30 +Weather +,2013-01-25 02:25:00,
2013-01-24 19:30:00,42.1,22.1,-100.00,WSW,237,2.9,4.5,44,0.00,,,-99.99,1.0,HOBO +U30 +Weather +,2013-01-25 02:30:00,
2013-01-24 19:35:00,41.9,21.8,-100.00,SSW,212,3.4,5.1,44,0.00,,,-99.99,1.0,HOBO +U30 +Weather +,2013-01-25 02:35:00,
2013-01-24 19:40:00,42.0,21.7,-100.00,SW,227,1.1,4.5,43,0.00,,,-99.99,1.0,HOBO +U30 +Weather +,2013-01-25 02:40:00,
2013-01-24 19:45:00,42.1,21.8,-100.00,WSW,243,1.8,3.4,44,0.00,,,-99.99,1.0,HOBO +U30 +Weather +,2013-01-25 02:45:00,
2013-01-24 19:50:00,42.0,21.5,-100.00,WSW,243,0.0,2.9,43,0.00,,,-99.99,1.0,HOBO +U30 +Weather +,2013-01-25 02:50:00,
2013-01-24 19:55:00,41.5,21.3,-100.00,WSW,244,0.0,2.2,44,0.00,,,-99.99,1.0,HOBO +U30 +Weather +,2013-01-25 02:55:00,
2013-01-24 20:00:00,40.2,21.7,-100.00,NW,305,1.1,3.4,47,0.00,,,-99.99,1.0,HOBO +U30 +Weather +,2013-01-25 03:00:00,
2013-01-24 20:05:00,41.5,21.7,-100.00,NNW,345,2.2,3.4,44,0.00,,,-99.99,1.0,HOBO +U30 +Weather +,2013-01-25 03:05:00,
2013-01-24 20:10:00,40.3,21.6,-100.00,North,350,0.7,4.5,46,0.00,,,-99.99,1.0,HOBO +U30 +Weather +,2013-01-25 03:10:00,
2013-01-24 20:15:00,40.1,21.5,-100.00,North,1,0.0,1.1,47,0.00,,,-99.99,1.0,HOBO +U30 +Weather +,2013-01-25 03:15:00,
2013-01-24 20:20:00,39.3,22.3,-100.00,North,0,0.0,0.7,50,0.00,,,-99.99,1.0,HOBO +U30 +Weather +,2013-01-25 03:20:00,
2013-01-24 20:25:00,39.4,21.8,-100.00,North,0,0.0,0.7,48,0.00,,,-99.99,1.0,HOBO +U30 +Weather +,2013-01-25 03:25:00,
2013-01-24 20:30:00,39.5,21.9,-100.00,NNE,22,0.0,2.9,49,0.00,,,-99.99,1.0,HOBO +U30 +Weather +,2013-01-25 03:30:00,
2013-01-24 20:35:00,40.1,22.0,-100.00,ESE,117,1.1,3.4,48,0.00,,,-99.99,1.0,HOBO +U30 +Weather +,2013-01-25 03:35:00,
2013-01-24 20:40:00,40.0,22.2,-100.00,ESE,117,0.0,0.0,48,0.00,,,-99.99,1.0,HOBO +U30 +Weather +,2013-01-25 03:40:00,
2013-01-24 20:45:00,36.7,22.0,-100.00,East,86,2.2,5.6,54,0.00,,,-99.99,1.0,HOBO +U30 +Weather +,2013-01-25 03:45:00,
2013-01-24 20:50:00,35.1,22.0,-100.00,NNE,31,2.9,5.1,58,0.00,,,-99.99,1.0,HOBO +U30 +Weather +,2013-01-25 03:50:00,
2013-01-24 20:55:00,36.6,21.9,-100.00,North,1,2.2,4.0,54,0.00,,,-99.99,1.0,HOBO +U30 +Weather +,2013-01-25 03:55:00,
2013-01-24 21:00:00,35.7,22.5,-100.00,WSW,247,1.1,3.4,58,0.00,,,-99.99,1.0,HOBO +U30 +Weather +,2013-01-25 04:00:00,
2013-01-24 21:05:00,37.1,21.8,-100.00,East,83,2.9,5.1,53,0.00,,,-99.99,1.0,HOBO +U30 +Weather +,2013-01-25 04:05:00,
2013-01-24 21:10:00,38.1,21.5,-100.00,ENE,72,1.1,3.4,50,0.00,,,-99.99,1.0,HOBO +U30 +Weather +,2013-01-25 04:10:00,
2013-01-24 21:15:00,37.6,21.2,-100.00,NNE,24,0.7,3.4,51,0.00,,,-99.99,1.0,HOBO +U30 +Weather +,2013-01-25 04:15:00,
2013-01-24 21:20:00,37.8,21.3,-100.00,NNE,32,0.7,2.9,50,0.00,,,-99.99,1.0,HOBO +U30 +Weather +,2013-01-25 04:20:00,
2013-01-24 21:25:00,39.8,22.5,-100.00,SSW,192,2.2,6.3,49,0.00,,,-99.99,1.0,HOBO +U30 +Weather +,2013-01-25 04:25:00,
2013-01-24 21:30:00,38.8,22.6,-100.00,SSE,154,5.6,8.9,51,0.00,,,-99.99,1.0,HOBO +U30 +Weather +,2013-01-25 04:30:00,
2013-01-24 21:35:00,37.4,22.1,-100.00,West,265,1.1,5.1,53,0.00,,,-99.99,1.0,HOBO +U30 +Weather +,2013-01-25 04:35:00,
2013-01-24 21:40:00,36.4,22.9,-100.00,North,3,2.2,4.5,57,0.00,,,-99.99,1.0,HOBO +U30 +Weather +,2013-01-25 04:40:00,
2013-01-24 21:45:00,36.1,21.7,-100.00,NNE,31,0.0,4.0,55,0.00,,,-99.99,1.0,HOBO +U30 +Weather +,2013-01-25 04:45:00,
2013-01-24 21:50:00,37.5,23.2,-100.00,SE,143,2.2,5.1,55,0.00,,,-99.99,1.0,HOBO +U30 +Weather +,2013-01-25 04:50:00,
2013-01-24 21:55:00,38.4,23.6,-100.00,South,177,4.5,8.5,55,0.00,,,-99.99,1.0,HOBO +U30 +Weather +,2013-01-25 04:55:00,
2013-01-24 22:00:00,38.5,23.6,-100.00,South,174,5.1,8.9,54,0.00,,,-99.99,1.0,HOBO +U30 +Weather +,2013-01-25 05:00:00,
2013-01-24 22:05:00,37.4,23.0,-100.00,SSW,208,0.7,4.0,55,0.00,,,-99.99,1.0,HOBO +U30 +Weather +,2013-01-25 05:05:00,
2013-01-24 22:10:00,36.8,23.2,-100.00,West,274,0.7,3.4,57,0.00,,,-99.99,1.0,HOBO +U30 +Weather +,2013-01-25 05:10:00,
2013-01-24 22:15:00,37.4,23.4,-100.00,South,187,2.2,4.5,56,0.00,,,-99.99,1.0,HOBO +U30 +Weather +,2013-01-25 05:15:00,
2013-01-24 22:20:00,36.8,23.2,-100.00,SSE,163,1.1,3.4,57,0.00,,,-99.99,1.0,HOBO +U30 +Weather +,2013-01-25 05:20:00,
2013-01-24 22:25:00,37.4,23.5,-100.00,South,170,1.8,4.5,56,0.00,,,-99.99,1.0,HOBO +U30 +Weather +,2013-01-25 05:25:00,
2013-01-24 22:30:00,35.2,23.0,-100.00,SSW,192,0.7,2.9,60,0.00,,,-99.99,1.0,HOBO +U30 +Weather +,2013-01-25 05:30:00,
2013-01-24 22:35:00,36.6,23.5,-100.00,SW,236,0.7,2.2,58,0.00,,,-99.99,1.0,HOBO +U30 +Weather +,2013-01-25 05:35:00,
2013-01-24 22:40:00,36.6,23.3,-100.00,SW,226,0.0,2.9,58,0.00,,,-99.99,1.0,HOBO +U30 +Weather +,2013-01-25 05:40:00,
2013-01-24 22:45:00,36.0,23.0,-100.00,SW,220,0.0,0.0,58,0.00,,,-99.99,1.0,HOBO +U30 +Weather +,2013-01-25 05:45:00,
2013-01-24 22:50:00,35.8,23.1,-100.00,SW,220,0.0,0.7,59,0.00,,,-99.99,1.0,HOBO +U30 +Weather +,2013-01-25 05:50:00,
2013-01-24 22:55:00,34.9,22.9,-100.00,SW,216,0.0,2.2,61,0.00,,,-99.99,1.0,HOBO +U30 +Weather +,2013-01-25 05:55:00,
2013-01-24 23:00:00,34.4,22.6,-100.00,SSE,159,1.8,5.6,61,0.00,,,-99.99,1.0,HOBO +U30 +Weather +,2013-01-25 06:00:00,
2013-01-24 23:05:00,32.2,20.9,-100.00,East,97,1.8,4.0,62,0.00,,,-99.99,1.0,HOBO +U30 +Weather +,2013-01-25 06:05:00,
2013-01-24 23:10:00,32.9,22.0,-100.00,ENE,70,1.8,3.4,63,0.00,,,-99.99,1.0,HOBO +U30 +Weather +,2013-01-25 06:10:00,
2013-01-24 23:15:00,34.2,22.8,-100.00,East,81,0.7,3.4,62,0.00,,,-99.99,1.0,HOBO +U30 +Weather +,2013-01-25 06:15:00,
2013-01-24 23:20:00,34.5,22.8,-100.00,SE,146,0.0,2.9,62,0.00,,,-99.99,1.0,HOBO +U30 +Weather +,2013-01-25 06:20:00,
2013-01-24 23:25:00,34.2,23.0,-100.00,SSW,206,1.8,3.4,63,0.00,,,-99.99,1.0,HOBO +U30 +Weather +,2013-01-25 06:25:00,
2013-01-24 23:30:00,33.6,22.5,-100.00,SSW,201,1.8,4.5,63,0.00,,,-99.99,1.0,HOBO +U30 +Weather +,2013-01-25 06:30:00,
2013-01-24 23:35:00,34.4,23.0,-100.00,SSW,205,2.9,4.5,62,0.00,,,-99.99,1.0,HOBO +U30 +Weather +,2013-01-25 06:35:00,
2013-01-24 23:40:00,32.9,22.1,-100.00,SW,226,1.8,3.4,64,0.00,,,-99.99,1.0,HOBO +U30 +Weather +,2013-01-25 06:40:00,
2013-01-24 23:45:00,32.3,22.0,-100.00,SW,219,2.2,4.5,65,0.00,,,-99.99,1.0,HOBO +U30 +Weather +,2013-01-25 06:45:00,
2013-01-24 23:50:00,32.1,21.7,-100.00,SW,226,1.1,3.4,65,0.00,,,-99.99,1.0,HOBO +U30 +Weather +,2013-01-25 06:50:00,
2013-01-24 23:55:00,32.2,22.4,-100.00,SW,229,0.0,1.8,66,0.00,,,-99.99,1.0,HOBO +U30 +Weather +,2013-01-25 06:55:00,